Date,TemperatureHighF,TemperatureAvgF,TemperatureLowF,DewpointHighF,DewpointAvgF,DewpointLowF,HumidityHigh,HumidityAvg,HumidityLow,PressureMaxIn,PressureMinIn,WindSpeedMaxMPH,WindSpeedAvgMPH,GustSpeedMaxMPH,PrecipitationSumIn
2013-1-1,83.7,74.9,60.3,65.2,58.2,55.2,99,59,40,30.21,30.08,9,2,16,0.01
2013-1-2,81.1,72.2,63.5,73.4,68.5,63.2,99,89,67,30.12,30.04,9,3,15,0.01
2013-1-3,79.2,67.7,60.3,76.9,66.3,60.0,99,95,78,30.22,30.08,5,1,9,0.01
2013-1-4,62.2,59.4,56.1,62.0,59.1,55.8,99,99,99,30.33,30.24,3,1,6,0.01
2013-1-5,80.8,66.2,57.2,65.0,60.3,56.8,99,83,48,30.35,30.23,4,1,8,0.01
2013-1-6,88.7,71.4,60.6,73.1,66.9,60.3,99,88,50,30.23,30.12,8,1,12,0.01
2013-1-7,71.8,63.6,60.6,63.2,60.9,57.8,99,91,66,30.27,30.17,6,2,12,0.01
2013-1-8,90.3,78.4,62.2,70.6,66.6,62.0,99,70,42,30.27,30.16,4,1,8,0.01
2013-1-9,93.4,80.8,69.4,76.6,68.6,63.9,99,70,40,30.33,30.23,6,1,12,0.01
2013-1-10,90.0,79.2,69.1,75.6,66.5,60.6,99,68,39,30.34,30.25,6,1,14,0.01
2013-1-11,87.3,77.1,63.3,73.8,64.4,60.0,99,68,41,30.29,30.18,7,2,13,0.01
2013-1-12,90.7,76.9,63.1,73.5,67.5,62.6,99,76,41,30.22,30.12,8,1,14,0.01
2013-1-13,85.3,75.5,65.1,71.9,65.8,62.7,99,75,51,30.22,30.11,7,1,11,0.01
2013-1-14,85.5,74.1,60.8,72.0,60.6,54.6,99,67,36,30.23,30.16,9,2,14,0.01
2013-1-15,86.9,74.6,57.9,74.4,64.1,57.6,99,74,42,30.19,30.10,9,2,15,0.01
2013-1-16,86.9,74.9,59.9,74.1,63.8,54.6,99,73,34,30.16,30.05,8,2,13,0.01
2013-1-17,72.0,63.7,57.4,71.7,59.6,48.1,99,87,60,30.21,30.05,8,2,13,0.01
2013-1-18,67.1,57.3,43.0,54.6,46.6,36.1,80,68,48,30.37,30.28,7,2,11,0.01
2013-1-19,80.2,71.5,55.2,60.5,56.5,51.3,90,60,45,30.33,30.17,4,2,9,0.01
2013-1-20,84.9,69.5,60.4,62.8,60.0,53.7,99,74,43,30.23,30.09,4,1,7,0.01
2013-1-21,86.0,69.6,59.7,60.5,56.9,51.8,91,66,41,30.16,30.08,4,1,8,0.01
2013-1-22,72.9,61.9,50.7,42.6,30.8,9.7,63,34,11,30.34,30.16,5,2,10,0.01
2013-1-23,77.4,62.9,48.0,44.5,31.3,14.5,84,37,10,30.43,30.33,4,1,9,0.01
2013-1-24,81.0,63.9,42.8,58.7,46.9,35.2,99,62,20,30.40,30.31,5,1,8,0.01
2013-1-25,83.8,66.9,45.5,67.0,48.4,34.9,99,60,18,30.37,30.24,6,1,9,0.01
2013-1-26,83.3,68.1,47.1,66.1,54.6,46.9,99,68,36,30.34,30.23,4,1,7,0.01
2013-1-27,87.8,71.5,50.5,66.6,53.4,45.1,99,61,24,30.36,30.25,4,1,10,0.01
2013-1-28,91.2,76.3,63.9,68.5,61.9,55.6,99,65,32,30.37,30.25,6,1,11,0.01
2013-1-29,89.2,75.9,62.4,72.5,65.8,60.5,99,74,40,30.27,30.13,10,3,17,0.01
2013-1-30,82.6,76.1,68.2,70.2,66.8,64.4,97,74,55,30.08,29.96,16,6,27,0.01
2013-1-31,66.2,60.2,52.3,54.2,38.7,27.2,77,47,28,30.29,30.09,8,3,13,0.01
2013-2-1,75.2,61.4,46.8,42.5,27.4,11.1,82,35,10,30.42,30.32,5,1,11,0.01
2013-2-2,82.0,64.8,48.2,45.7,36.3,16.5,72,42,10,30.37,30.21,4,1,7,0.01
2013-2-3,79.2,62.9,41.7,58.8,49.3,41.5,99,67,35,30.26,30.15,4,1,8,0.01
2013-2-4,80.6,61.7,42.1,61.2,37.9,14.8,99,54,10,30.20,30.09,8,1,11,0.01
2013-2-5,78.1,59.5,44.4,56.5,49.8,41.0,99,74,34,30.13,30.05,7,1,11,0.01
2013-2-6,83.7,72.8,62.2,64.1,59.3,52.5,94,66,36,30.15,30.07,8,2,11,0.01
2013-2-7,84.0,73.2,62.8,70.4,65.4,59.1,99,80,46,30.10,29.89,14,5,27,0.01
2013-2-8,82.2,70.2,59.0,66.1,61.1,57.5,99,76,46,30.14,29.99,4,2,8,0.01
2013-2-9,87.6,70.8,56.1,58.4,53.1,41.8,99,60,21,30.25,30.16,4,1,8,0.01
2013-2-10,85.5,74.4,62.4,62.8,59.6,55.7,91,62,40,30.29,30.18,7,2,15,0.01
2013-2-11,85.8,75.5,64.0,69.5,65.5,61.8,99,74,47,30.25,30.13,12,3,20,0.01
2013-2-12,84.4,75.9,68.7,74.0,70.9,68.4,99,86,64,30.15,30.00,11,5,21,0.01
2013-2-13,80.8,72.1,60.1,78.1,71.4,59.8,99,98,85,30.05,29.91,13,5,21,0.01
2013-2-14,64.9,61.9,59.7,64.7,61.6,59.4,99,99,99,30.12,30.00,3,0,6,0.01
2013-2-15,78.1,62.9,56.1,62.3,54.0,42.4,99,76,33,30.15,30.03,3,0,5,0.01
2013-2-16,76.1,61.3,49.3,56.5,44.9,33.4,99,58,31,30.18,30.01,8,2,17,0.01
2013-2-17,60.1,50.2,39.6,29.3,17.8,8.4,66,30,13,30.40,30.29,6,2,11,0.01
2013-2-18,77.4,60.9,41.2,47.7,33.3,6.0,84,42,12,30.42,30.27,8,1,12,0.01
2013-2-19,80.4,69.7,48.6,65.4,57.2,48.3,99,69,39,30.23,30.13,11,3,18,0.01
2013-2-20,84.9,69.3,60.3,68.6,60.8,54.6,99,77,45,30.17,30.06,4,1,8,0.01
2013-2-21,86.2,74.6,60.8,65.7,63.3,60.3,99,71,45,30.15,30.03,8,2,14,0.01
2013-2-22,86.2,76.0,61.0,72.9,68.2,60.7,99,79,54,30.12,30.05,12,4,21,0.01
2013-2-23,79.9,73.5,69.4,76.5,72.6,69.1,99,97,83,30.05,29.96,12,4,19,0.01
2013-2-24,80.6,72.8,68.2,78.3,72.0,67.7,99,98,86,30.02,29.94,9,2,14,0.01
2013-2-25,85.8,77.3,68.5,77.8,73.3,68.2,99,89,62,29.94,29.82,10,2,16,0.01
2013-2-26,79.7,72.5,68.2,75.4,70.0,63.9,99,92,63,29.92,29.76,11,3,22,0.01
2013-2-27,78.8,68.2,60.3,63.1,54.8,49.7,96,65,39,30.04,29.95,4,1,7,0.01
2013-2-28,81.3,69.3,56.1,59.5,50.7,45.0,97,55,30,30.06,29.97,5,1,14,0.01
2013-3-1,68.9,60.0,54.0,45.0,38.6,30.8,62,45,33,30.09,30.01,6,1,11,0.01
2013-3-2,64.9,56.2,47.5,40.8,36.3,31.8,73,48,32,30.14,30.04,6,2,12,0.01
2013-3-3,60.6,51.0,44.2,35.0,32.1,27.3,59,49,34,30.21,30.09,4,2,11,0.01
2013-3-4,72.0,58.0,39.7,37.9,28.4,16.5,71,37,14,30.29,30.18,3,1,6,0.01
2013-3-5,77.2,65.7,40.5,63.6,52.8,40.2,99,67,41,30.22,30.09,9,3,14,0.01
2013-3-6,68.7,60.6,54.5,50.7,37.5,29.2,75,44,25,30.20,30.09,8,3,12,0.01
2013-3-7,71.1,57.6,45.3,43.0,30.9,16.5,78,41,13,30.29,30.22,4,1,8,0.01
2013-3-8,80.4,64.4,41.4,51.5,36.8,18.1,99,47,10,30.29,30.18,3,1,7,0.01
2013-3-9,82.8,67.5,47.5,52.2,40.2,19.1,99,44,10,30.27,30.18,4,1,9,0.01
2013-3-10,87.6,71.6,58.8,55.4,50.6,41.5,86,52,21,30.21,30.09,8,2,17,0.01
2013-3-11,81.7,72.1,61.0,58.9,57.0,52.9,89,61,40,30.11,29.93,11,4,18,0.01
2013-3-12,72.0,65.1,59.2,68.4,59.0,49.9,99,82,52,30.08,29.90,11,2,17,0.01
2013-3-13,75.2,65.8,57.6,46.8,35.0,12.3,64,36,10,30.25,30.13,5,2,8,0.01
2013-3-14,69.3,59.8,52.0,40.6,23.6,4.7,59,29,10,30.34,30.24,5,2,10,0.01
2013-3-15,79.0,62.3,41.4,49.6,29.5,10.7,98,40,10,30.35,30.22,4,1,8,0.01
2013-3-16,79.2,65.3,44.4,59.1,45.4,27.2,99,59,16,30.24,30.13,8,2,14,0.01
2013-3-17,80.4,67.9,52.2,61.2,55.7,50.3,99,68,40,30.18,30.04,11,2,15,0.01
2013-3-18,74.7,69.3,58.6,67.9,64.8,57.5,99,86,73,30.08,29.92,7,2,15,0.01
2013-3-19,91.0,74.8,62.1,70.9,62.2,56.8,99,69,32,30.07,29.96,8,1,11,0.01
2013-3-20,75.0,68.6,60.3,69.4,64.2,60.0,99,87,64,30.01,29.86,7,1,12,0.01
2013-3-21,73.8,60.6,46.8,45.7,31.8,9.9,88,42,10,30.06,29.96,4,1,8,0.01
2013-3-22,82.4,62.1,44.8,69.0,50.8,30.9,99,74,20,30.06,29.94,7,1,11,0.00
2013-3-23,81.5,72.0,66.2,76.7,70.5,65.9,99,95,74,30.02,29.84,11,3,18,0.01
2013-3-24,80.2,74.1,71.1,78.1,73.7,70.8,99,99,88,29.82,29.71,13,5,22,0.01
2013-3-25,68.9,62.7,57.2,55.4,41.6,27.1,76,48,26,30.10,29.86,7,2,12,0.01
2013-3-26,62.6,55.6,50.0,36.2,30.4,24.0,51,39,25,30.30,30.15,7,2,14,0.01
2013-3-27,64.4,53.0,43.7,36.1,29.1,19.6,68,41,25,30.40,30.30,4,2,8,0.01
2013-3-28,76.8,60.9,41.2,45.9,25.2,8.7,99,37,10,30.36,30.26,4,1,7,0.01
2013-3-29,83.3,65.9,44.4,52.3,34.0,10.9,99,42,10,30.38,30.25,4,1,8,0.01
2013-3-30,78.6,69.5,48.6,55.6,48.8,37.6,99,52,29,30.30,30.19,9,3,16,0.01
2013-3-31,82.6,72.3,54.3,60.3,54.5,44.8,99,56,29,30.20,30.05,9,3,16,0.01
2013-4-1,84.2,75.6,67.8,67.9,65.8,61.5,96,73,48,30.09,30.00,11,3,17,0.01
2013-4-2,89.1,74.6,61.0,69.1,59.8,53.6,99,65,32,30.15,30.06,5,1,9,0.01
2013-4-3,86.7,75.6,64.0,71.5,65.5,56.8,99,74,39,30.08,29.99,10,3,14,0.01
2013-4-4,75.4,70.5,67.5,71.7,68.5,63.1,99,94,67,30.10,29.90,9,2,14,0.01
2013-4-5,78.1,69.1,62.8,70.4,60.5,49.6,99,76,40,30.02,29.86,6,2,10,0.01
2013-4-6,82.9,68.0,56.5,59.0,51.8,43.0,80,59,26,30.16,30.08,4,1,8,0.01
2013-4-7,89.2,74.8,61.7,64.1,54.1,35.4,99,54,17,30.20,30.10,4,1,9,0.01
2013-4-8,91.2,78.0,64.6,62.1,53.1,36.8,87,48,16,30.18,30.08,5,1,11,0.01
2013-4-9,89.1,77.7,62.4,68.4,59.5,52.2,99,58,30,30.20,30.11,6,1,13,0.01
2013-4-10,94.1,80.4,66.4,65.8,59.7,46.6,92,54,21,30.13,30.01,8,1,11,0.01
2013-4-11,91.2,81.1,73.0,72.5,68.9,63.8,98,69,43,30.00,29.85,11,4,21,0.01
2013-4-12,79.2,76.7,73.0,76.7,74.3,70.1,99,92,85,29.98,29.82,14,4,22,0.01
2013-4-13,95.0,79.9,68.2,72.4,63.3,53.6,99,62,25,30.03,29.93,6,1,11,0.01
2013-4-14,86.0,78.3,69.6,73.0,69.8,60.0,93,76,57,30.05,29.90,10,3,18,0.01
2013-4-15,97.0,82.6,69.1,65.1,61.5,56.0,81,51,26,30.11,29.97,4,1,9,0.01
2013-4-16,95.5,84.8,68.2,73.1,65.3,54.5,99,57,27,30.17,30.09,4,2,11,0.01
2013-4-17,94.1,83.0,70.5,67.4,56.2,45.2,86,45,22,30.19,30.05,5,2,11,0.01
2013-4-18,92.8,82.0,69.1,69.7,63.4,55.5,90,57,30,30.09,29.99,8,2,14,0.01
2013-4-19,89.4,81.9,74.5,73.0,69.5,62.1,91,68,42,30.05,29.98,14,5,24,0.01
2013-4-20,76.6,70.8,65.3,64.2,59.8,57.2,83,69,53,30.16,30.04,4,1,8,0.01
2013-4-21,85.5,74.7,63.7,69.9,63.5,58.8,91,70,45,30.17,30.07,4,1,9,0.01
2013-4-22,87.1,75.9,68.0,72.0,65.7,60.3,99,74,45,30.13,30.02,4,1,8,0.01
2013-4-23,90.5,78.0,66.9,63.8,59.9,51.0,88,57,27,30.16,30.06,4,1,9,0.01
2013-4-24,92.8,78.4,64.8,64.1,55.8,32.5,88,52,12,30.19,30.13,5,1,9,0.01
2013-4-25,88.9,78.5,63.9,70.4,61.6,53.0,99,59,36,30.26,30.17,8,2,13,0.01
2013-4-26,90.7,79.7,65.7,69.4,62.4,55.4,99,59,32,30.29,30.20,4,1,8,0.01
2013-4-27,93.6,80.4,70.5,69.4,61.4,45.3,93,56,21,30.25,30.13,4,1,10,0.01
2013-4-28,91.8,80.4,68.2,63.5,57.9,45.0,79,50,21,30.16,30.01,8,2,14,0.01
2013-4-29,85.8,78.8,69.1,69.6,64.4,59.0,88,63,41,30.06,29.95,9,3,16,0.01
2013-4-30,94.1,81.1,69.6,71.7,64.3,53.7,99,62,27,30.04,29.94,6,1,9,0.01
2013-5-1,75.7,72.1,67.8,75.4,70.3,67.5,99,94,80,30.05,29.97,4,1,9,0.01
2013-5-2,84.0,75.7,67.8,70.8,68.1,65.4,99,79,55,29.98,29.86,5,1,9,0.01
2013-5-3,88.3,78.1,69.1,75.0,66.7,59.7,99,71,39,29.85,29.77,5,1,9,0.01
2013-5-4,86.2,76.4,66.2,71.3,65.3,60.5,99,71,43,29.85,29.75,6,1,14,0.01
2013-5-5,79.0,71.7,64.9,55.2,46.3,34.8,64,42,21,29.99,29.89,8,2,12,0.01
2013-5-6,78.3,71.2,64.2,54.9,49.6,44.3,64,47,31,30.07,29.97,5,1,11,0.01
2013-5-7,79.3,72.8,62.4,59.3,53.6,47.6,83,53,34,30.12,30.03,10,2,16,0.01
2013-5-8,84.0,74.2,59.7,66.8,56.1,46.0,99,57,28,30.19,30.10,8,1,13,0.01
2013-5-9,89.8,77.0,61.3,71.1,59.9,45.7,99,60,24,30.20,30.13,9,1,14,0.01
2013-5-10,91.4,80.6,63.3,72.2,61.7,47.9,99,58,23,30.15,30.05,8,2,14,0.01
2013-5-11,88.9,80.7,73.4,77.1,71.2,63.5,99,74,45,30.10,30.05,8,3,14,0.01
2013-5-12,90.7,80.9,70.3,78.0,67.5,61.8,99,66,40,30.09,30.01,7,1,12,0.01
2013-5-13,87.8,77.5,70.5,71.9,48.7,34.1,97,42,17,30.19,30.07,5,2,11,0.01
2013-5-14,88.0,76.0,59.5,50.6,32.1,15.5,49,24,10,30.28,30.17,4,2,8,0.01
2013-5-15,92.1,78.4,61.3,61.8,47.9,24.6,84,40,10,30.27,30.12,5,1,10,0.01
2013-5-16,91.6,79.5,64.8,63.7,55.1,32.6,86,47,14,30.18,30.05,7,1,12,0.01
2013-5-17,91.9,81.1,67.6,64.0,59.3,52.1,81,50,26,30.15,30.07,8,2,11,0.01
2013-5-18,91.8,82.3,69.6,73.6,62.9,46.2,99,56,23,30.16,30.07,8,2,12,0.01
2013-5-19,99.3,83.5,69.4,75.7,61.3,50.3,99,52,23,30.15,30.03,6,1,11,0.01
2013-5-20,94.6,83.4,73.4,68.7,64.2,50.8,82,55,31,30.12,30.02,6,1,9,0.01
2013-5-21,91.8,81.1,69.8,73.8,64.7,57.1,99,61,34,30.08,29.96,7,1,11,0.01
2013-5-22,94.3,82.7,71.8,70.9,65.8,56.6,92,60,30,30.02,29.94,4,1,8,0.01
2013-5-23,93.2,83.5,71.2,77.1,67.2,60.5,99,61,35,30.07,30.00,4,1,8,0.01
2013-5-24,95.0,85.6,74.7,75.5,65.7,52.9,99,55,29,30.11,30.05,4,1,8,0.01
2013-5-25,96.1,86.6,73.4,65.4,49.2,32.1,69,32,12,30.22,30.11,4,2,11,0.01
2013-5-26,92.8,83.7,72.9,58.1,36.1,21.5,60,22,10,30.27,30.15,4,1,9,0.01
2013-5-27,93.6,85.1,72.0,62.2,49.0,35.8,71,32,14,30.22,30.08,5,2,11,0.01
2013-5-28,95.2,82.6,73.2,74.7,65.4,55.6,93,60,28,30.16,30.06,8,2,14,0.01
2013-5-29,91.2,81.9,73.8,72.8,65.6,58.4,93,60,36,30.14,30.06,8,2,15,0.01
2013-5-30,91.6,83.9,76.6,71.6,64.5,58.9,84,54,36,30.13,30.03,8,3,22,0.01
2013-5-31,91.6,82.3,75.2,74.2,66.8,60.3,85,61,36,30.12,30.04,7,2,15,0.01
2013-6-9,91.4,84.6,79.5,76.1,69.9,64.7,83,62,44,30.13,30.06,8,1,13,0.00
2013-6-10,91.9,85.4,77.2,78.9,71.5,63.1,99,66,40,30.14,30.06,8,2,12,0.00
2013-6-11,93.0,84.1,73.2,81.0,74.5,66.5,99,75,47,30.16,30.06,4,0,11,0.00
2013-6-12,92.7,85.4,74.5,81.1,70.9,64.9,99,64,44,30.13,30.05,3,0,6,0.16
2013-6-13,93.4,85.8,75.9,80.7,70.3,61.8,99,63,37,30.10,29.96,5,1,10,0.16
2013-6-14,90.1,84.7,79.3,72.9,69.7,64.4,78,62,45,30.01,29.92,7,2,12,0.00
2013-6-15,92.5,85.8,79.2,77.4,72.8,68.3,91,66,48,30.08,29.99,6,1,11,0.00
2013-6-16,93.4,86.5,79.3,77.3,72.6,67.5,93,65,43,30.13,30.05,6,1,9,0.00
2013-6-17,93.0,87.1,78.3,79.4,70.2,62.5,99,60,37,30.10,30.03,8,1,13,0.11
2013-6-18,92.8,86.7,76.3,80.5,71.3,63.7,99,63,43,30.10,30.02,8,2,12,0.02
2013-6-19,95.2,87.8,78.3,81.7,71.8,64.4,99,62,40,30.08,30.02,8,1,11,0.02
2013-6-20,93.6,85.8,77.0,81.4,70.3,60.3,99,63,35,30.15,30.06,6,1,9,0.09
2013-6-21,91.9,83.6,74.5,75.4,69.6,62.6,99,65,41,30.16,30.09,4,0,8,0.07
2013-6-22,93.4,85.7,74.3,79.9,65.8,56.0,99,56,30,30.16,30.09,7,2,12,0.00
2013-6-23,97.0,84.3,72.0,77.2,69.7,51.0,99,68,22,30.17,30.10,11,1,20,0.81
2013-6-24,95.7,86.5,75.4,79.2,68.8,54.4,99,60,27,30.23,30.10,5,1,8,0.21
2013-6-25,96.6,86.7,74.8,80.1,69.1,56.8,99,60,29,30.19,30.06,8,1,15,0.05
2013-6-26,91.2,82.9,75.4,80.5,74.2,66.2,99,78,45,30.16,30.06,7,1,11,0.67
2013-6-27,93.2,85.7,73.9,79.9,72.0,65.5,99,66,43,30.09,29.99,6,1,11,0.00
2013-6-28,91.6,85.9,76.8,80.1,72.1,67.6,99,65,47,30.00,29.89,9,3,14,0.00
2013-6-29,90.3,82.6,78.1,74.2,71.1,67.4,82,69,55,29.93,29.84,11,2,17,0.08
2013-7-10,90.9,86.3,77.5,73.4,68.2,64.5,87,57,45,30.06,30.01,4,1,11,0.00
2013-7-11,88.9,83.3,77.0,81.7,73.9,68.9,99,75,53,30.07,29.97,9,1,14,0.26
2013-7-12,90.7,85.3,78.3,79.7,71.4,64.6,99,65,45,30.00,29.93,8,1,13,0.00
2013-7-13,88.7,81.2,75.6,80.1,73.6,68.4,99,79,53,30.01,29.95,8,1,16,0.89
2013-7-14,89.8,82.3,75.4,77.5,73.8,68.1,99,77,51,30.10,30.00,4,0,8,0.01
2013-7-15,93.4,84.3,75.2,74.8,68.3,59.9,95,61,34,30.16,30.05,4,1,9,0.00
2013-7-16,93.2,81.7,76.8,76.6,69.7,60.2,98,70,35,30.19,30.13,9,1,18,0.11
2013-7-17,95.0,80.7,71.1,76.0,71.2,59.5,99,77,31,30.20,30.10,6,1,13,0.37
2013-7-18,90.0,80.7,75.0,77.8,71.8,63.1,99,78,44,30.16,30.08,7,1,13,0.06
2013-7-19,90.0,80.1,74.3,77.2,73.8,69.2,99,83,52,30.17,30.08,8,1,17,0.48
2013-7-20,91.4,83.6,74.8,79.6,73.4,65.6,99,74,48,30.15,30.06,7,1,10,0.02
2013-7-21,91.9,85.6,75.2,81.4,74.9,69.0,99,72,52,30.17,30.09,8,2,15,0.00
2013-7-22,91.0,85.9,77.9,81.5,73.7,69.7,99,69,51,30.18,30.11,9,3,15,0.00
2013-7-23,90.5,85.1,78.3,76.0,71.1,66.8,91,64,47,30.14,30.02,8,2,14,0.01
2013-7-24,91.8,86.4,81.5,73.5,71.2,67.3,76,61,46,30.04,29.96,7,2,14,0.00
2013-7-28,92.8,86.8,80.2,76.8,70.1,65.0,80,58,43,30.10,30.04,7,1,11,0.00
2013-7-29,96.3,87.1,74.7,80.3,68.4,50.6,99,58,22,30.18,30.11,8,1,11,0.03
2013-7-30,97.2,85.9,73.2,79.2,71.2,56.8,99,66,27,30.23,30.10,7,0,16,0.53
2013-7-31,97.0,86.8,76.8,82.3,70.7,53.5,99,62,24,30.17,30.05,5,0,8,0.01
2013-8-1,92.7,85.7,77.4,77.8,70.0,64.7,97,61,42,30.08,30.00,6,1,10,0.00
2013-8-2,92.8,86.3,75.4,78.4,70.6,64.3,99,62,41,30.09,30.00,6,1,10,0.00
2013-8-3,95.0,87.2,76.8,79.8,70.1,62.7,99,60,38,30.14,30.07,9,2,15,0.00
2013-8-4,95.4,87.4,79.0,78.5,71.7,64.1,92,62,37,30.13,30.05,9,1,16,0.01
2013-8-5,96.6,89.2,81.9,75.5,70.7,61.9,79,56,35,30.08,29.98,4,1,8,0.00
2013-8-6,95.2,83.7,75.7,81.7,75.6,68.1,99,79,45,30.02,29.95,7,0,12,1.55
2013-8-7,99.1,84.8,74.7,80.0,73.2,59.9,99,72,29,30.02,29.93,7,1,10,0.18
2013-8-8,96.6,84.4,72.1,80.5,72.3,60.8,99,71,32,30.07,29.97,8,1,17,2.12
2013-8-9,97.3,82.6,73.4,81.0,72.1,56.9,99,76,29,30.11,30.00,5,1,9,1.28
2013-8-10,94.6,86.2,73.2,80.1,70.9,61.6,99,64,35,30.17,30.07,5,1,11,0.01
2013-8-11,97.9,88.1,76.1,79.4,69.4,56.2,99,58,29,30.20,30.09,4,0,8,0.00
2013-8-12,99.1,88.4,77.0,80.3,71.8,57.1,99,61,26,30.16,30.05,7,0,11,0.00
2013-8-13,96.4,87.5,77.7,76.9,69.9,60.8,94,59,32,30.09,29.98,5,1,11,0.00
2013-8-14,94.8,86.7,77.4,83.6,71.8,62.9,99,65,38,30.03,29.97,9,2,14,0.43
2013-8-15,94.5,86.1,77.5,77.6,70.8,61.6,92,62,36,30.07,29.99,10,2,15,0.00
2013-8-16,92.5,86.6,81.1,71.7,68.2,61.4,71,55,39,30.09,30.00,11,2,18,0.00
2013-8-17,96.3,87.1,76.6,80.7,70.4,59.5,99,62,35,30.12,30.02,9,2,15,0.15
2013-8-18,97.0,84.9,76.8,81.2,72.7,59.6,99,71,31,30.13,30.05,5,1,12,0.25
2013-8-19,97.3,84.4,73.9,80.3,72.2,60.0,99,73,30,30.11,30.00,8,1,14,0.75
2013-8-20,95.5,84.8,75.6,80.1,71.2,62.5,99,68,36,30.13,30.03,4,1,9,0.03
2013-8-21,96.6,84.8,75.7,78.9,71.5,61.2,99,69,34,30.15,30.02,6,1,16,0.21
2013-8-22,97.5,83.1,73.6,78.3,72.8,58.3,99,76,31,30.13,30.02,7,1,16,0.84
2013-8-23,96.4,84.7,77.5,82.0,72.3,59.1,99,70,30,30.06,30.00,4,1,9,0.05
2013-8-24,93.6,84.9,75.6,80.3,71.6,63.6,99,67,40,30.14,30.05,4,1,9,0.02
2013-8-25,91.8,83.2,77.7,76.5,71.1,63.3,92,69,40,30.20,30.11,4,0,8,0.00
2013-8-26,95.4,83.8,77.2,77.4,71.2,57.6,96,71,31,30.17,30.05,4,1,8,0.33
2013-8-27,95.4,84.0,74.5,76.7,69.1,52.4,99,68,26,30.10,30.01,7,1,12,1.44
2013-8-28,95.9,84.0,72.5,77.4,67.4,50.7,99,64,24,30.11,30.01,4,0,8,0.07
2013-8-29,95.2,85.6,73.6,79.8,68.6,58.9,99,61,33,30.08,29.99,4,1,10,0.00
2013-8-30,97.5,85.0,77.0,81.9,72.2,58.6,99,68,30,30.05,29.94,5,1,9,0.02
2013-8-31,77.7,75.0,73.2,77.4,74.6,72.9,99,99,97,30.04,29.97,7,1,11,1.92
2013-9-2,95.2,86.3,78.1,79.3,68.4,59.3,99,58,31,30.07,29.98,6,1,14,0.01
2013-9-3,96.4,84.6,77.0,77.6,70.0,58.8,96,66,30,30.08,29.98,4,0,8,0.00
2013-9-4,97.7,85.0,75.2,78.9,70.6,55.0,99,68,27,30.14,30.02,8,1,14,0.33
2013-9-5,99.0,86.4,73.4,77.0,70.1,56.5,99,63,26,30.14,30.04,8,1,12,0.42
2013-9-6,96.1,83.5,76.6,82.4,74.2,62.0,99,76,37,30.11,29.98,6,1,11,0.49
2013-9-7,96.6,84.6,73.2,73.0,66.6,53.7,95,58,24,30.07,29.96,4,1,8,0.01
2013-9-8,96.8,85.3,74.1,77.3,66.1,51.0,99,57,24,30.02,29.91,3,1,8,0.01
2013-9-9,97.9,87.5,75.4,75.6,62.2,46.4,95,48,19,30.07,29.97,4,1,8,0.01
2013-9-10,97.0,87.2,78.1,73.4,61.0,43.3,85,46,17,30.13,30.03,4,1,10,0.01
2013-9-11,97.3,86.8,77.5,73.2,60.0,38.4,84,46,14,30.12,30.02,4,2,11,0.01
2013-9-12,98.1,84.0,75.6,76.2,67.4,51.3,95,61,22,30.06,29.93,4,0,9,0.01
2013-9-13,94.8,84.1,73.4,77.6,68.8,62.1,99,63,38,29.95,29.86,5,0,8,0.01
2013-9-14,96.1,85.6,74.7,80.8,69.2,61.8,99,62,34,30.02,29.89,3,0,8,0.01
2013-9-15,99.1,84.5,74.5,76.5,67.1,52.5,91,61,23,30.12,30.00,9,2,21,0.01
2013-9-16,98.1,83.3,74.8,75.0,68.8,55.9,95,68,27,30.12,30.00,7,1,16,0.04
2013-9-17,98.8,84.9,75.0,76.4,66.4,49.9,99,59,22,30.10,29.98,5,1,10,0.00
2013-9-18,95.9,84.0,76.3,73.5,67.1,56.3,86,59,28,30.07,29.99,5,1,10,0.00
2013-9-19,98.2,83.6,74.5,76.3,68.4,52.4,99,66,23,30.10,30.00,4,1,8,1.40
2013-9-20,95.9,84.4,73.0,76.7,64.0,51.7,99,56,24,30.07,29.93,4,1,10,0.01
2013-9-21,91.8,83.5,70.9,71.4,62.9,52.4,92,53,29,29.94,29.82,8,2,13,0.01
2013-9-22,90.9,84.4,78.6,73.5,69.0,59.2,84,61,38,29.87,29.80,11,2,17,0.01
2013-9-23,84.9,79.4,76.3,81.2,77.4,73.6,99,94,73,29.98,29.89,10,1,18,0.74
2013-9-24,81.7,78.8,74.7,78.5,76.3,73.4,99,92,78,30.00,29.88,9,3,17,1.05
2013-9-25,81.5,76.7,71.1,77.6,73.6,70.8,99,91,75,29.97,29.83,12,2,20,1.01
2013-9-26,93.4,85.0,76.1,77.2,71.4,65.0,88,65,45,29.91,29.84,6,1,13,0.01
2013-9-27,93.0,81.7,71.8,68.9,64.2,54.7,90,59,29,30.01,29.91,4,1,7,0.01
2013-9-28,96.3,82.9,72.3,71.6,64.2,49.8,93,58,21,30.05,29.96,4,1,11,0.01
2013-9-29,96.6,84.2,72.7,67.9,59.6,40.5,82,49,15,30.05,29.94,4,0,6,0.01
2013-9-30,96.8,83.7,74.1,71.3,63.4,47.4,89,55,20,30.03,29.96,4,0,8,0.01
2013-10-1,99.0,86.9,75.2,72.0,60.7,41.4,88,47,14,30.09,30.00,4,1,10,0.01
2013-10-2,97.5,86.2,75.4,67.8,60.6,49.5,77,46,22,30.10,30.01,6,1,10,0.01
2013-10-3,98.1,85.8,75.6,68.1,59.5,40.4,77,46,17,30.11,30.02,4,1,11,0.01
2013-10-4,96.3,84.5,76.8,74.5,64.6,48.6,90,56,22,30.13,30.04,5,0,8,0.01
2013-10-5,99.0,85.3,75.0,70.5,62.9,41.1,84,51,16,30.10,29.99,4,1,10,0.01
2013-10-6,93.0,85.7,74.8,78.0,63.3,33.6,99,52,18,30.01,29.91,7,2,11,0.01
2013-10-7,90.3,82.8,75.6,77.6,72.3,68.3,99,72,51,29.89,29.79,14,4,21,0.45
2013-10-8,93.6,84.4,76.3,73.7,67.4,59.9,86,59,37,29.99,29.86,4,1,8,0.00
2013-10-9,86.0,76.9,73.0,65.9,63.8,58.6,78,65,42,30.10,30.01,3,0,7,0.00
2013-10-10,93.2,80.3,66.7,65.7,58.4,45.1,90,52,21,30.11,30.01,3,0,6,0.00
2013-10-11,94.6,81.5,66.7,73.6,56.4,39.2,99,50,15,30.10,30.00,4,0,6,0.00
2013-10-12,92.1,80.5,66.2,71.6,51.7,27.3,99,47,10,30.10,30.03,4,0,8,0.00
2013-10-13,94.8,80.6,63.7,71.9,49.8,27.0,99,45,10,30.14,30.03,3,0,6,0.00
2013-10-14,92.5,80.1,66.6,70.3,58.4,41.3,99,53,18,30.10,29.98,4,1,8,0.00
2013-10-15,89.8,77.9,67.6,67.2,62.9,56.8,91,64,34,30.06,29.95,3,0,6,0.00
2013-10-16,91.2,79.0,68.4,74.6,62.9,49.0,99,63,26,30.03,29.95,2,0,5,0.00
2013-10-17,93.4,81.9,68.9,76.3,63.4,54.3,99,59,28,30.03,29.95,7,1,11,0.00
2013-10-18,94.5,83.4,71.1,76.5,64.4,51.9,99,59,27,30.03,29.94,8,1,11,0.00
2013-10-19,91.2,81.6,72.3,77.4,70.2,60.7,99,71,41,30.00,29.92,8,1,12,0.00
2013-10-20,97.2,84.1,74.8,81.2,67.1,53.1,99,63,26,30.00,29.93,4,0,8,0.00
2013-10-21,94.5,83.7,73.4,76.7,65.6,50.7,99,60,25,30.05,29.97,6,1,12,0.00
2013-10-22,90.0,80.4,71.6,78.9,69.9,63.6,99,73,45,29.98,29.88,9,2,19,0.28
2013-10-23,84.2,76.8,70.5,72.1,51.6,27.2,95,46,15,30.04,29.89,5,1,10,0.02
2013-10-24,79.3,69.5,63.9,45.0,33.3,17.4,50,27,11,30.21,30.10,3,0,7,0.01
2013-10-25,88.3,74.4,55.4,58.5,37.1,17.2,92,37,10,30.30,30.20,4,0,7,0.01
2013-10-26,88.7,74.0,61.2,52.3,40.9,22.6,72,37,10,30.27,30.15,4,1,6,0.01
2013-10-27,91.4,73.9,55.4,60.3,41.2,22.3,95,42,10,30.18,30.10,4,0,6,0.01
2013-10-28,93.0,76.6,59.7,58.4,41.7,20.9,84,39,10,30.25,30.16,3,0,6,0.01
2013-10-29,94.1,80.8,66.0,64.6,50.1,27.8,90,43,10,30.28,30.17,4,1,9,0.01
2013-10-30,95.5,81.8,68.9,64.5,52.7,29.5,84,43,10,30.28,30.13,4,1,10,0.01
2013-10-31,92.7,80.0,65.8,70.6,56.5,38.8,99,52,18,30.16,30.02,8,1,12,0.01
2013-11-1,87.8,80.1,70.3,73.9,69.4,64.9,99,72,48,30.02,29.93,11,4,20,0.01
2013-11-2,80.2,71.4,64.6,74.7,64.0,55.6,99,79,49,30.01,29.86,7,1,11,0.72
2013-11-3,85.3,73.5,60.4,46.6,29.9,13.0,58,24,10,30.18,30.06,4,1,6,0.00
2013-11-4,87.3,74.7,62.8,55.0,45.3,28.2,58,38,14,30.21,30.13,5,2,10,0.00
2013-11-5,90.0,79.2,65.7,63.9,56.5,48.9,85,49,25,30.19,30.09,6,2,11,0.00
2013-11-6,95.4,81.8,72.0,62.9,53.8,29.3,72,44,10,30.16,30.06,4,1,8,0.00
2013-11-7,88.0,76.8,68.7,67.3,58.9,48.9,89,57,28,30.11,30.02,2,0,6,0.00
2013-11-8,87.8,76.1,67.3,60.1,48.2,33.5,74,42,16,30.17,30.07,4,1,8,0.00
2013-11-9,90.0,78.4,68.0,56.3,52.3,42.1,64,42,21,30.21,30.12,4,1,10,0.00
2013-11-10,91.8,77.2,67.5,61.6,55.7,38.4,79,51,16,30.22,30.11,3,0,5,0.00
2013-11-11,92.8,78.3,67.3,61.1,53.6,35.6,78,47,14,30.21,30.11,3,0,7,0.00
2013-11-12,82.6,73.9,65.3,69.7,61.7,52.7,99,68,42,30.17,30.07,3,0,5,0.00
2013-11-13,72.9,63.1,56.3,40.3,36.1,29.0,49,37,20,30.37,30.22,5,3,11,0.00
2013-11-14,86.2,71.5,53.8,48.7,37.8,21.6,70,34,10,30.35,30.21,7,1,12,0.00
2013-11-15,74.1,70.1,64.9,61.0,55.7,49.8,74,61,45,30.23,30.10,3,0,8,0.01
2013-11-16,77.7,73.6,69.1,68.6,65.6,62.1,95,77,66,30.18,30.07,3,0,7,0.01
2013-11-17,90.0,78.7,69.4,67.5,61.0,52.8,88,58,30,30.13,30.03,9,1,13,0.01
2013-11-18,87.3,78.7,67.3,75.9,64.1,56.0,99,65,37,30.08,29.97,8,1,11,0.01
2013-11-19,89.8,76.4,70.3,73.8,62.9,50.5,99,66,31,30.03,29.92,2,0,5,0.02
2013-11-20,87.6,75.5,66.0,65.2,61.6,56.8,79,64,36,30.14,30.02,3,0,7,0.00
2013-11-21,91.6,80.3,72.3,67.5,61.0,51.2,85,55,26,30.23,30.13,5,1,9,0.00
2013-11-22,93.2,80.1,71.2,68.6,59.1,42.9,89,53,20,30.24,30.13,4,0,8,0.00
2013-11-23,93.2,78.8,63.9,70.1,53.9,32.5,98,49,12,30.17,30.06,4,0,8,0.00
2013-11-24,73.6,67.4,60.4,61.7,50.2,42.2,78,55,42,30.27,30.12,5,2,10,0.00
2013-11-25,80.1,71.9,64.2,53.1,45.5,39.8,55,40,26,30.27,30.13,6,2,13,0.00
2013-11-26,83.3,76.1,69.4,74.8,68.8,62.9,99,79,51,29.99,29.80,11,4,22,0.08
2013-11-27,75.0,69.7,65.1,59.7,51.9,42.6,78,54,32,30.00,29.83,11,2,23,0.04
2013-11-29,79.2,68.3,59.7,47.2,40.3,26.1,56,39,15,30.41,30.31,3,0,7,0.00
2013-11-30,82.6,72.5,56.8,55.2,48.8,40.1,82,46,23,30.35,30.22,3,0,7,0.00
2013-12-1,84.9,69.0,60.1,62.3,54.7,44.4,97,67,27,30.25,30.07,2,0,4,0.00
2013-12-2,72.9,66.9,60.8,67.7,51.8,39.0,99,63,30,30.00,29.89,2,0,4,0.00
2013-12-3,84.7,73.4,55.9,65.2,55.1,45.1,99,58,26,30.02,29.93,7,1,13,0.00
2013-12-4,87.3,75.6,64.8,72.4,62.2,53.6,99,67,33,30.12,30.03,7,1,10,0.00
2013-12-5,88.3,76.7,64.6,71.7,57.6,43.7,99,59,22,30.21,30.13,6,1,9,0.00
2013-12-6,88.3,78.4,63.7,72.9,62.9,55.7,99,63,35,30.21,30.13,10,2,19,0.00
2013-12-7,90.9,78.0,64.8,72.4,58.0,48.2,99,57,24,30.29,30.18,5,0,9,0.00
2013-12-8,91.8,77.8,62.8,72.6,57.3,44.7,99,56,20,30.27,30.14,6,1,10,0.00
2013-12-9,87.6,76.9,63.5,72.4,62.6,56.4,99,65,35,30.23,30.13,10,2,17,0.00
2013-12-10,86.9,76.7,61.5,73.3,63.4,57.9,99,67,39,30.22,30.13,7,1,14,0.00
2013-12-11,92.1,76.1,65.5,60.1,51.6,37.1,74,48,15,30.29,30.20,4,0,7,0.00
2013-12-12,81.3,68.8,59.9,60.0,31.2,3.1,87,36,10,30.37,30.25,5,0,8,0.00
2013-12-13,85.1,70.3,51.3,48.7,36.0,19.3,68,34,10,30.32,30.15,2,0,8,0.00
2013-12-14,87.1,77.5,68.4,67.5,61.7,54.0,79,60,33,30.12,29.98,12,3,19,0.00
2013-12-15,77.4,67.9,62.2,71.7,54.6,45.8,99,64,33,30.18,29.96,4,0,9,0.05
2013-12-16,73.9,60.7,49.3,40.1,28.2,10.5,67,35,10,30.29,30.20,0,0,4,0.00
2013-12-17,83.8,64.5,44.6,44.3,28.1,10.7,73,34,10,30.32,30.21,0,0,2,0.00
2013-12-18,83.1,64.2,43.9,55.9,32.1,11.2,99,43,10,30.35,30.26,0,0,2,0.00
2013-12-19,86.5,69.2,43.9,47.8,35.4,16.8,91,38,10,30.33,30.20,3,0,8,0.00
2013-12-20,92.5,77.7,58.1,59.4,51.0,39.2,86,45,16,30.24,30.12,2,0,9,0.00
2013-12-21,89.8,79.9,67.5,65.8,58.7,50.8,88,52,28,30.17,30.05,8,1,13,0.00
2013-12-22,88.3,79.9,70.5,70.6,62.8,54.8,98,60,34,30.18,30.10,9,1,20,0.00
2013-12-23,87.4,78.6,69.4,74.7,68.0,62.6,99,73,45,30.22,30.13,8,1,19,0.00
2013-12-24,76.8,66.0,55.2,57.9,29.0,1.2,83,33,10,30.33,30.23,5,1,11,0.00
2013-12-25,84.7,69.4,48.9,43.9,34.0,25.1,47,29,12,30.29,30.17,1,0,6,0.00
2013-12-26,89.2,71.8,61.0,54.9,46.5,20.8,76,47,10,30.26,30.13,2,0,6,0.00
2013-12-27,72.9,67.3,62.1,62.2,57.0,51.4,78,70,60,30.30,30.18,0,0,4,0.07
2013-12-28,83.8,74.5,66.6,65.8,61.6,55.6,92,66,39,30.24,30.04,0,0,5,0.00
2013-12-29,76.8,70.4,64.8,72.6,65.9,60.0,99,86,73,30.07,29.93,9,2,16,0.52
2013-12-30,78.6,65.6,61.0,56.7,53.1,44.2,83,67,31,30.24,30.12,2,0,4,0.01
2013-12-31,72.1,66.7,61.3,42.9,35.0,23.3,50,32,17,30.35,30.26,0,0,2,0.00
2014-1-1,64.4,62.2,59.9,62.6,58.4,50.3,98,88,70,30.29,30.13,0,0,4,0.18
2014-1-2,79.3,71.1,63.0,73.3,68.7,62.2,99,93,67,30.01,29.89,11,2,18,0.45